Total_Precipitation_Accumulation
1.10 1.14 1.06 0.95 0.94 1.06 1.28 1.40 1.42 1.22 1.07 0.93 0.78 0.55 0.50 0.43 0.34 0.31 0.28 0.17 0.09 0.07 0.07 0.07 0.09 0.12 0.16 0.22 0.29 0.36 0.43 0.51 0.59 0.67 0.71 0.72 0.71 0.71
1.27 1.26 1.24 1.16 1.14 1.18 1.29 1.40 1.46 1.42 1.14 0.98 0.93 0.69 0.52 0.37 0.32 0.29 0.23 0.15 0.08 0.07 0.06 0.05 0.06 0.09 0.12 0.15 0.17 0.20 0.23 0.29 0.37 0.46 0.52 0.53 0.53 0.56
1.08 1.16 1.22 1.28 1.27 1.26 1.26 1.25 1.34 1.39 1.12 1.08 1.17 0.97 0.72 0.55 0.42 0.35 0.27 0.23 0.18 0.11 0.07 0.05 0.06 0.09 0.12 0.16 0.17 0.18 0.20 0.24 0.27 0.31 0.37 0.42 0.42 0.44
0.92 0.97 0.96 0.97 1.01 1.06 1.09 1.11 1.16 1.28 1.14 1.09 1.28 1.26 0.99 0.67 0.55 0.48 0.36 0.29 0.25 0.19 0.13 0.09 0.08 0.09 0.12 0.15 0.19 0.22 0.23 0.25 0.29 0.31 0.33 0.36 0.39 0.40
0.75 0.72 0.65 0.67 0.71 0.76 0.82 0.89 0.95 1.16 1.14 1.14 1.31 1.29 1.06 0.81 0.70 0.56 0.46 0.45 0.35 0.29 0.20 0.13 0.10 0.09 0.12 0.13 0.18 0.26 0.29 0.28 0.28 0.32 0.35 0.38 0.42 0.43
0.53 0.48 0.46 0.51 0.55 0.60 0.66 0.69 0.71 0.83 0.89 0.98 1.15 1.19 1.08 0.94 0.89 0.75 0.65 0.61 0.51 0.40 0.36 0.24 0.19 0.15 0.14 0.15 0.17 0.26 0.36 0.40 0.40 0.41 0.44 0.47 0.49 0.50
0.42 0.34 0.33 0.37 0.40 0.42 0.47 0.52 0.55 0.66 0.71 0.77 0.90 1.05 0.99 0.87 0.84 0.84 0.80 0.77 0.70 0.59 0.60 0.46 0.38 0.30 0.23 0.19 0.20 0.28 0.43 0.55 0.57 0.57 0.59 0.61 0.65 0.68
0.32 0.25 0.21 0.25 0.30 0.34 0.40 0.41 0.41 0.45 0.55 0.68 0.75 0.79 0.78 0.78 0.83 0.85 0.88 0.84 0.87 0.81 0.86 0.85 0.77 0.70 0.53 0.35 0.26 0.27 0.38 0.58 0.70 0.71 0.74 0.75 0.77 0.80
0.17 0.18 0.17 0.19 0.23 0.25 0.27 0.26 0.28 0.31 0.36 0.48 0.51 0.55 0.60 0.64 0.77 0.91 1.01 1.09 1.16 1.12 1.17 1.26 1.21 1.18 0.78 0.62 0.53 0.40 0.36 0.43 0.57 0.69 0.72 0.79 0.85 0.87
0.13 0.11 0.12 0.15 0.17 0.16 0.18 0.20 0.17 0.15 0.16 0.18 0.20 0.27 0.55 0.69 0.67 0.76 0.92 1.04 1.14 1.20 1.29 1.51 1.45 1.46 1.16 0.80 0.58 0.40 0.34 0.33 0.40 0.53 0.64 0.72 0.84 0.95
0.13 0.09 0.06 0.09 0.13 0.12 0.12 0.13 0.11 0.10 0.10 0.10 0.09 0.10 0.17 0.34 0.50 0.56 0.63 0.80 1.11 1.29 1.31 1.50 1.57 1.52 1.57 1.36 0.87 0.52 0.32 0.28 0.31 0.38 0.49 0.60 0.70 0.81
0.12 0.08 0.07 0.06 0.06 0.06 0.06 0.06 0.06 0.05 0.05 0.05 0.06 0.05 0.05 0.04 0.06 0.11 0.18 0.32 0.55 0.83 0.96 1.21 1.49 1.56 1.76 1.87 1.50 0.99 0.65 0.45 0.34 0.32 0.38 0.45 0.56 0.60
0.12 0.08 0.06 0.06 0.03 0.03 0.04 0.04 0.04 0.04 0.03 0.03 0.04 0.04 0.04 0.04 0.02 0.02 0.05 0.11 0.20 0.32 0.39 0.52 0.79 1.02 1.35 1.72 1.70 1.35 1.06 0.87 0.67 0.51 0.44 0.44 0.50 0.57
0.14 0.08 0.05 0.04 0.02 0.01 0.02 0.02 0.03 0.02 0.02 0.02 0.02 0.01 0.01 0.01 0.01 0.01 0.02 0.04 0.08 0.13 0.17 0.25 0.41 0.46 0.57 0.87 1.13 1.11 1.00 0.95 0.97 0.96 0.82 0.70 0.61 0.63
0.18 0.10 0.05 0.04 0.03 0.02 0.01 0.01 0.01 0.01 0.01 0.01 0.01 0.01 0.01 0.00 0.00 0.01 0.01 0.02 0.02 0.03 0.04 0.08 0.16 0.23 0.32 0.45 0.60 0.68 0.72 0.77 0.93 1.11 1.15 1.04 0.91 0.83
0.20 0.12 0.07 0.04 0.02 0.02 0.01 0.00 0.00 0.01 0.01 0.00 0.00 0.00 0.00 0.00 0.00 0.00 0.01 0.01 0.03 0.03 0.03 0.03 0.05 0.10 0.18 0.27 0.34 0.41 0.49 0.58 0.67 0.86 1.10 1.24 1.23 1.16
0.20 0.13 0.07 0.03 0.02 0.02 0.01 0.00 0.00 0.00 0.00 0.00 0.00 0.00 0.00 0.00 0.01 0.01 0.01 0.01 0.01 0.03 0.03 0.03 0.04 0.06 0.09 0.15 0.26 0.31 0.34 0.41 0.49 0.55 0.66 0.81 0.90 0.94
0.18 0.12 0.06 0.02 0.01 0.01 0.01 0.00 0.00 0.00 0.00 0.00 0.01 0.01 0.01 0.01 0.01 0.01 0.01 0.01 0.01 0.02 0.03 0.04 0.04 0.07 0.11 0.13 0.12 0.19 0.25 0.28 0.33 0.38 0.41 0.47 0.49 0.44
0.14 0.10 0.05 0.02 0.01 0.00 0.00 0.00 0.00 0.00 0.00 0.00 0.00 0.00 0.00 0.00 0.00 0.00 0.01 0.02 0.03 0.03 0.04 0.06 0.08 0.08 0.11 0.15 0.16 0.09 0.11 0.17 0.22 0.27 0.30 0.31 0.33 0.29
0.10 0.07 0.03 0.01 0.00 0.00 0.00 0.00 0.00 0.00 0.00 0.00 0.00 0.00 0.00 0.00 0.00 0.00 0.00 0.01 0.02 0.04 0.04 0.06 0.09 0.13 0.14 0.14 0.16 0.19 0.09 0.07 0.11 0.15 0.17 0.19 0.21 0.17
0.06 0.04 0.02 0.01 0.00 0.00 0.00 0.00 0.00 0.00 0.00 0.00 0.00 0.00 0.00 0.00 0.00 0.00 0.00 0.01 0.02 0.02 0.03 0.04 0.05 0.09 0.13 0.20 0.24 0.27 0.25 0.14 0.08 0.08 0.09 0.11 0.16 0.20
0.03 0.02 0.01 0.00 0.00 0.00 0.00 0.00 0.00 0.00 0.00 0.00 0.00 0.00 0.00 0.00 0.00 0.00 0.00 0.00 0.01 0.02 0.02 0.03 0.04 0.06 0.10 0.19 0.25 0.28 0.28 0.26 0.22 0.14 0.11 0.08 0.08 0.11
0.02 0.01 0.01 0.00 0.00 0.00 0.00 0.00 0.00 0.00 0.00 0.00 0.00 0.00 0.00 0.00 0.00 0.01 0.01 0.01 0.01 0.01 0.02 0.04 0.06 0.09 0.11 0.11 0.15 0.20 0.23 0.25 0.29 0.31 0.31 0.18 0.07 0.03